Weather in Vasilchuki

Russia / Altai Krai     52°16′24″N   78°57′04″E
temp.,
°C
wind,
m/s
gust,
m/s
humid.,
%
clouds,
%
prec.,
mm/h
press.,
hPa
HPBL,
m
27 january, wed
wed2701:00−8ssw51095100 1.7 1031330
04:00−2wsw61295100 0.4 1030614
07:00−3sw6129599 0.6 1030502
10:00−3sw6129599 0.3 1030575
13:00−4sw7129499 0.5 1030462
16:00−2sw71294100 0.3 1029646
19:00−2wsw61193100 0.4 1030759
22:00−4w51093100 0.1 1031594
28 january, thu
thu2801:00−4wsw5994100 0.3 1032546
04:00−4w4995100 0.2 1032517
07:00−5wsw489599 0.4 1034356
10:00−10wsw489699 0.1 1034158
13:00−7sw589494 0.1 1035312
16:00−5wsw699499 0.0 1034442
19:00−4wsw599399 0.1 1034525
22:00−7sw5109392 0.0 1033261
29 january, fri
fri2901:00−7sw5119393 0.0 1032281
04:00−6sw61289100 0.0 1032334
07:00−6sw71487100 0.0 1031357
10:00−6wsw71585100 0.0 1030389
13:00−4wsw71484100 0.0 1030467
16:00−3wsw61285100 0.0 1030507
19:00−6wsw51189100 0.0 1031336
22:00−7wsw4990100 0.0 1032255
30 january, sat
sat3001:00−9wsw3692100 0.0 1033133
04:00−10wsw469299 0.0 1033121
07:00−12wsw349198 0.0 103380
10:00−12sw338997 0.0 103338
13:00−8sw348795 0.0 1034200
16:00−6sw248751 0.0 1033212
19:00−10sse228836 0.0 103221
22:00−10se338658 0.0 103227
31 january, sun
sun3101:00−11se348979 0.0 103156
04:00−11se348397 0.0 103071
07:00−11se478399 0.0 1028120
10:00−10se51082100 0.0 1027202
13:00−7sse61081100 0.0 1025264
16:00−6sse5984100 0.0 1024277
19:00−9sse3789100 0.0 1023151
22:00−12sse368696 0.0 1022112